EW8349 Weather Reports


Display with metric or nautical units.
time (UTC)temp
F
wind
direction
speed
MPH
gust
MPH
rain 1hr
in
rain 24hr
in
rain mn
in
humidity
%
barometer
mb
20210927050659 62 141 0.0 0.0 0.00 0.00 0.00 88 1001.0
20210927050159 63 141 0.0 0.0 0.00 0.00 0.00 88 1001.1
20210927045658 63 141 0.0 0.0 0.00 0.00 0.00 88 1001.1
20210927045154 63 141 0.0 0.0 0.00 0.00 0.00 87 1001.2
20210927044654 63 141 0.0 0.0 0.00 0.00 0.00 87 1001.1
20210927044155 63 141 0.0 0.0 0.00 0.00 0.00 86 1001.2
20210927043654 63 141 0.0 0.0 0.00 0.00 0.00 86 1001.2
20210927043152 64 141 0.0 0.0 0.00 0.00 0.00 86 1001.2
20210927042652 64 141 0.0 0.0 0.00 0.00 0.00 86 1001.2
20210927042153 64 141 0.0 0.0 0.00 0.00 0.00 86 1001.2
20210927041654 64 141 0.0 0.0 0.00 0.00 0.00 86 1001.2
20210927041152 64 141 0.0 0.0 0.00 0.00 0.00 86 1001.2
20210927040651 64 141 0.0 0.0 0.00 0.00 0.00 86 1001.2
20210927040151 65 141 0.0 0.0 0.00 0.00 0.00 86 1001.2
20210927035650 65 141 0.0 0.0 0.00 0.00 0.00 85 1001.2
20210927035151 65 141 0.0 0.0 0.00 0.00 0.00 85 1001.2
20210927034651 65 141 0.0 0.0 0.00 0.00 0.00 85 1001.2
20210927034150 65 141 0.0 0.0 0.00 0.00 0.00 85 1001.2
20210927033650 65 141 0.0 0.0 0.00 0.00 0.00 85 1001.1
20210927033149 66 141 0.0 0.0 0.00 0.00 0.00 85 1001.1
20210927032648 66 141 0.0 0.0 0.00 0.00 0.00 84 1000.9
20210927032151 66 141 0.0 0.0 0.00 0.00 0.00 84 1001.1
20210927031648 66 141 0.0 0.0 0.00 0.00 0.00 84 1001.0
20210927031149 66 141 0.0 0.0 0.00 0.00 0.00 84 1000.9
20210927030648 66 141 0.0 0.0 0.00 0.00 0.00 83 1000.9
20210927030146 66 141 0.0 0.0 0.00 0.00 0.00 81 1000.9
20210927025648 67 141 0.0 0.0 0.00 0.00 0.00 80 1000.9
20210927025146 67 141 0.0 0.0 0.00 0.00 0.00 80 1000.9
20210927024645 67 140 0.0 0.0 0.00 0.00 0.00 80 1000.9
20210927024145 67 140 0.0 0.0 0.00 0.00 0.00 79 1000.8
20210927023645 67 140 0.0 0.0 0.00 0.00 0.00 78 1000.7
20210927023145 68 140 0.0 0.0 0.00 0.00 0.00 78 1000.7
20210927022645 68 140 0.0 0.0 0.00 0.00 0.00 78 1000.6
20210927022145 68 140 0.0 0.0 0.00 0.00 0.00 77 1000.5
20210927021646 69 140 0.0 0.0 0.00 0.00 0.00 76 1000.6
20210927021144 69 140 0.0 0.0 0.00 0.00 0.00 76 1000.5
20210927020643 69 140 0.0 0.0 0.00 0.00 0.00 75 1000.4
20210927020143 70 140 0.0 0.0 0.00 0.00 0.00 75 1000.4
20210927015642 70 140 0.0 0.0 0.00 0.00 0.00 73 1000.3
20210927015140 71 140 0.0 0.0 0.00 0.00 0.00 71 1000.3
20210927014642 71 140 0.0 0.0 0.00 0.00 0.00 71 1000.2
20210927014141 71 140 0.0 0.0 0.00 0.00 0.00 72 1000.2
20210927013640 72 140 0.0 0.0 0.00 0.00 0.00 71 1000.1
20210927013139 72 140 0.0 0.0 0.00 0.00 0.00 71 1000.1
20210927012636 72 140 0.0 0.0 0.00 0.00 0.00 71 1000.0
20210927012135 73 140 0.0 0.0 0.00 0.00 0.00 70 1000.0
20210927011635 73 140 0.0 0.0 0.00 0.00 0.00 69 1000.0
20210927011133 74 140 0.0 0.0 0.00 0.00 0.00 67 999.9
20210927010632 75 140 0.0 0.0 0.00 0.00 0.00 66 999.8
20210927010130 76 140 0.0 0.0 0.00 0.00 0.00 64 999.8
20210927005630 76 140 0.0 0.0 0.00 0.00 0.00 62 999.8
20210927005126 77 140 0.0 0.0 0.00 0.00 0.00 60 999.8
20210927004627 77 140 0.0 0.0 0.00 0.00 0.00 60 999.7
20210927004126 78 140 0.0 0.0 0.00 0.00 0.00 59 999.7
20210927003624 79 140 0.0 0.0 0.00 0.00 0.00 58 999.7
20210927003124 80 140 0.0 0.0 0.00 0.00 0.00 56 999.7
20210927002624 81 140 0.0 0.0 0.00 0.00 0.00 55 999.7
20210927002122 82 140 0.0 0.0 0.00 0.00 0.00 53 999.6
20210927001621 83 140 0.0 0.0 0.00 0.00 0.00 49 999.7
20210927001118 83 140 0.0 0.0 0.00 0.00 0.00 47 999.6
20210927000618 83 140 0.0 0.0 0.00 0.00 0.00 46 999.7
20210927000116 84 140 0.0 0.0 0.00 0.00 0.00 44 999.7
20210926235617 84 140 0.0 0.0 0.00 0.00 0.00 43 999.6
20210926235116 84 140 0.0 0.0 0.00 0.00 0.00 43 999.6
20210926234614 84 140 0.0 0.0 0.00 0.00 0.00 43 999.6
20210926234116 85 125 0.0 0.0 0.00 0.00 0.00 43 999.5
20210926233615 85 126 0.0 0.0 0.00 0.00 0.00 42 999.6
20210926233115 85 144 0.0 0.0 0.00 0.00 0.00 41 999.5
20210926232615 85 124 0.0 0.0 0.00 0.00 0.00 41 999.5
20210926232117 86 122 0.0 0.0 0.00 0.00 0.00 40 999.5
20210926231615 86 129 0.0 0.0 0.00 0.00 0.00 40 999.5
20210926231115 86 153 0.0 0.0 0.00 0.00 0.00 40 999.5
20210926230614 86 146 0.0 0.0 0.00 0.00 0.00 40 999.5
20210926230114 86 138 0.0 0.0 0.00 0.00 0.00 40 999.5
20210926225614 87 155 0.0 0.0 0.00 0.00 0.00 39 999.5
20210926225115 87 126 0.0 0.0 0.00 0.00 0.00 38 999.5
20210926224615 87 136 0.0 0.0 0.00 0.00 0.00 39 999.5
20210926224115 87 134 0.0 0.0 0.00 0.00 0.00 39 999.5
20210926223614 87 139 0.0 0.0 0.00 0.00 0.00 39 999.5
20210926223114 87 126 0.0 4.0 0.00 0.00 0.00 38 999.6
20210926222613 87 111 0.0 4.0 0.00 0.00 0.00 38 999.6
20210926222113 88 136 0.0 2.0 0.00 0.00 0.00 37 999.6
20210926221613 88 131 0.0 1.0 0.00 0.00 0.00 37 999.6
20210926221114 88 140 0.0 3.0 0.00 0.00 0.00 38 999.7
20210926220610 88 86 1.0 5.0 0.00 0.00 0.00 37 999.8
20210926220109 88 122 0.0 5.0 0.00 0.00 0.00 37 999.7
20210926215608 89 122 0.0 4.0 0.00 0.00 0.00 36 999.7
20210926215108 89 123 0.0 3.0 0.00 0.00 0.00 38 999.8
20210926214605 89 167 0.0 1.0 0.00 0.00 0.00 38 999.9
20210926214104 89 146 0.0 4.0 0.00 0.00 0.00 37 999.9
20210926213603 89 137 1.0 5.0 0.00 0.00 0.00 37 999.9
20210926213103 89 161 0.0 6.0 0.00 0.00 0.00 37 1000.0
20210926212558 89 115 0.0 6.0 0.00 0.00 0.00 38 1000.0
20210926212057 89 155 0.0 1.0 0.00 0.00 0.00 37 1000.1
20210926211557 89 132 0.0 7.0 0.00 0.00 0.00 37 1000.2
20210926211056 90 109 0.0 7.0 0.00 0.00 0.00 36 1000.2
20210926210555 90 113 0.0 4.0 0.00 0.00 0.00 37 1000.1
20210926210057 89 121 0.0 4.0 0.00 0.00 0.00 35 1000.2
20210926205555 89 157 0.0 7.0 0.00 0.00 0.00 35 1000.2
20210926205052 89 55 0.0 7.0 0.00 0.00 0.00 38 1000.3
20210926204554 89 137 0.0 7.0 0.00 0.00 0.00 36 1000.3
20210926204053 89 181 0.0 7.0 0.00 0.00 0.00 36 1000.3
20210926203555 89 171 1.0 8.0 0.00 0.00 0.00 37 1000.4
20210926203053 89 97 1.0 8.0 0.00 0.00 0.00 37 1000.4
20210926202557 89 124 2.0 7.0 0.00 0.00 0.00 36 1000.4
20210926202050 89 129 1.0 8.0 0.00 0.00 0.00 36 1000.5
20210926201550 89 134 0.0 8.0 0.00 0.00 0.00 36 1000.5
20210926201050 89 127 0.0 5.0 0.00 0.00 0.00 38 1000.6
20210926200550 89 313 1.0 9.0 0.00 0.00 0.00 37 1000.7
20210926200050 89 130 2.0 9.0 0.00 0.00 0.00 36 1000.8
20210926195549 89 130 2.0 9.0 0.00 0.00 0.00 38 1000.8
20210926195050 89 124 1.0 7.0 0.00 0.00 0.00 37 1000.9
20210926194549 89 147 0.0 7.0 0.00 0.00 0.00 37 1001.0
20210926194048 89 108 1.0 10.0 0.00 0.00 0.00 37 1001.0
20210926193548 89 130 1.0 10.0 0.00 0.00 0.00 40 1001.1
20210926193049 88 150 1.0 9.0 0.00 0.00 0.00 40 1001.2
20210926192548 88 127 0.0 0.0 0.00 0.00 0.00 39 1001.3
20210926192048 89 121 0.0 0.0 0.00 0.00 0.00 39 1001.4
20210926191548 87 133 0.0 0.0 0.00 0.00 0.00 41 1001.4
20210926191048 87 130 0.0 0.0 0.00 0.00 0.00 39 1001.6
20210926190551 87 162 0.0 0.0 0.00 0.00 0.00 39 1001.7
20210926190048 87 76 0.0 0.0 0.00 0.00 0.00 39 1001.8
20210926185548 88 130 0.0 0.0 0.00 0.00 0.00 39 1001.8
20210926185048 88 127 0.0 0.0 0.00 0.00 0.00 39 1001.9
20210926184548 88 150 0.0 0.0 0.00 0.00 0.00 38 1002.0
20210926184049 87 234 0.0 0.0 0.00 0.00 0.00 38 1002.1
20210926183548 87 185 0.0 0.0 0.00 0.00 0.00 41 1002.1
20210926183048 87 187 0.0 0.0 0.00 0.00 0.00 42 1002.2
20210926182549 87 123 0.0 0.0 0.00 0.00 0.00 43 1002.3
20210926182046 86 75 0.0 0.0 0.00 0.00 0.00 43 1002.5
20210926181546 86 130 0.0 6.0 0.00 0.00 0.00 45 1002.5
20210926181046 86 155 0.0 6.0 0.00 0.00 0.00 44 1002.6
20210926180546 87 139 0.0 0.0 0.00 0.00 0.00 43 1002.8
20210926180047 86 98 0.0 0.0 0.00 0.00 0.00 45 1002.9
20210926175546 86 355 0.0 4.0 0.00 0.00 0.00 45 1003.0
20210926175046 86 101 0.0 4.0 0.00 0.00 0.00 47 1003.1
20210926174547 85 141 0.0 2.0 0.00 0.00 0.00 46 1003.2
20210926174046 85 160 0.0 4.0 0.00 0.00 0.00 46 1003.2
20210926173546 85 156 0.0 7.0 0.00 0.00 0.00 45 1003.3
20210926173044 85 85 0.0 7.0 0.00 0.00 0.00 46 1003.5
20210926172544 85 132 1.0 9.0 0.00 0.00 0.00 46 1003.6
20210926172044 85 129 1.0 9.0 0.00 0.00 0.00 46 1003.6
20210926171544 85 150 0.0 0.0 0.00 0.00 0.00 47 1003.6
20210926171044 84 282 0.0 0.0 0.00 0.00 0.00 47 1003.7
20210926170545 84 209 0.0 0.0 0.00 0.00 0.00 47 1003.7
20210926170044 84 45 0.0 1.0 0.00 0.00 0.00 49 1003.8
20210926165544 84 176 0.0 1.0 0.00 0.00 0.00 51 1003.9
20210926165044 83 296 0.0 0.0 0.00 0.00 0.00 50 1004.0
20210926164544 83 266 0.0 0.0 0.00 0.00 0.00 50 1004.1
20210926164041 83 150 0.0 3.0 0.00 0.00 0.00 49 1004.1
20210926163541 83 294 0.0 3.0 0.00 0.00 0.00 51 1004.2
20210926163042 82 211 0.0 3.0 0.00 0.00 0.00 50 1004.3
20210926162544 83 268 0.0 0.0 0.00 0.00 0.00 50 1004.4
20210926162043 83 205 0.0 0.0 0.00 0.00 0.00 50 1004.4
20210926161540 83 224 0.0 4.0 0.00 0.00 0.00 51 1004.3
20210926161039 82 118 0.0 4.0 0.00 0.00 0.00 53 1004.3
20210926160540 82 194 0.0 0.0 0.00 0.00 0.00 52 1004.4
20210926160041 82 289 0.0 0.0 0.00 0.00 0.00 53 1004.4
20210926155539 82 275 0.0 0.0 0.00 0.00 0.00 54 1004.4
20210926155039 81 299 0.0 1.0 0.00 0.00 0.00 56 1004.4
20210926154538 81 288 0.0 1.0 0.00 0.00 0.00 53 1004.4
20210926154038 80 228 0.0 0.0 0.00 0.00 0.00 55 1004.5
20210926153538 79 272 0.0 0.0 0.00 0.00 0.00 56 1004.5
20210926153036 78 297 0.0 4.0 0.00 0.00 0.00 60 1004.6
20210926152536 77 282 0.0 4.0 0.00 0.00 0.00 60 1004.6
20210926152036 77 271 0.0 1.0 0.00 0.00 0.00 62 1004.6
20210926151536 76 218 0.0 1.0 0.00 0.00 0.00 64 1004.6
20210926151035 75 273 0.0 1.0 0.00 0.00 0.00 64 1004.6
20210926150533 74 284 0.0 1.0 0.00 0.00 0.00 66 1004.6
20210926150033 74 346 0.0 0.0 0.00 0.00 0.00 67 1004.6
20210926145531 73 282 0.0 0.0 0.00 0.00 0.00 69 1004.6
20210926145031 72 263 0.0 2.0 0.00 0.00 0.00 71 1004.6
20210926144531 71 279 0.0 2.0 0.00 0.00 0.00 74 1004.5
20210926144031 69 289 0.0 1.0 0.00 0.00 0.00 78 1004.5
20210926143529 68 211 0.0 1.0 0.00 0.00 0.00 84 1004.5
20210926143029 66 275 0.0 0.0 0.00 0.00 0.00 90 1004.4
20210926142530 65 276 0.0 0.0 0.00 0.00 0.00 96 1004.4
20210926142028 65 130 0.0 0.0 0.00 0.00 0.00 97 1004.5
20210926141528 64 130 0.0 0.0 0.00 0.00 0.00 98 1004.5
20210926141028 63 130 0.0 0.0 0.00 0.00 0.00 97 1004.5
20210926140528 63 130 0.0 0.0 0.00 0.00 0.00 98 1004.4
20210926140028 62 130 0.0 0.0 0.00 0.00 0.00 97 1004.4
20210926135525 61 130 0.0 0.0 0.00 0.00 0.00 97 1004.4
20210926135030 60 130 0.0 0.0 0.00 0.00 0.00 97 1004.4
20210926134526 59 130 0.0 0.0 0.00 0.00 0.00 97 1004.4
20210926134027 59 130 0.0 0.0 0.00 0.00 0.00 97 1004.4
20210926133525 58 130 0.0 0.0 0.00 0.00 0.00 97 1004.4
20210926133021 57 130 0.0 0.0 0.00 0.00 0.00 97 1004.4
20210926132522 57 130 0.0 0.0 0.00 0.00 0.00 97 1004.4
20210926132022 57 130 0.0 0.0 0.00 0.00 0.00 96 1004.4
20210926131519 56 130 0.0 0.0 0.00 0.00 0.00 96 1004.3
20210926131020 56 129 0.0 0.0 0.00 0.00 0.00 96 1004.3
20210926130519 56 130 0.0 0.0 0.00 0.00 0.00 96 1004.2
20210926130020 55 129 0.0 0.0 0.00 0.00 0.00 96 1004.1
20210926125520 55 129 0.0 0.0 0.00 0.00 0.00 95 1004.1
20210926125020 55 129 0.0 0.0 0.00 0.00 0.00 95 1004.1
20210926124520 55 129 0.0 0.0 0.00 0.00 0.00 95 1004.0
20210926124020 55 129 0.0 0.0 0.00 0.00 0.00 95 1004.0
20210926123520 55 130 0.0 0.0 0.00 0.00 0.00 95 1003.9
20210926123020 55 129 0.0 0.0 0.00 0.00 0.00 95 1003.9
20210926122520 55 129 0.0 0.0 0.00 0.00 0.00 95 1003.8
20210926122020 55 129 0.0 0.0 0.00 0.00 0.00 95 1003.9
20210926121519 55 130 0.0 0.0 0.00 0.00 0.00 95 1003.8
20210926121019 55 129 0.0 0.0 0.00 0.00 0.00 95 1003.8
20210926120520 55 130 0.0 0.0 0.00 0.00 0.00 95 1003.7
20210926120020 55 129 0.0 0.0 0.00 0.00 0.00 95 1003.7
20210926115520 55 129 0.0 0.0 0.00 0.00 0.00 95 1003.7
20210926115020 55 130 0.0 0.0 0.00 0.00 0.00 95 1003.7
20210926114519 55 129 0.0 0.0 0.00 0.00 0.00 95 1003.6
20210926114020 55 129 0.0 0.0 0.00 0.00 0.00 95 1003.6
20210926113519 55 129 0.0 0.0 0.00 0.00 0.00 95 1003.6
20210926113020 55 129 0.0 0.0 0.00 0.00 0.00 95 1003.5
20210926112519 55 129 0.0 0.0 0.00 0.00 0.00 94 1003.5
20210926112017 55 129 0.0 0.0 0.00 0.00 0.00 94 1003.4
20210926111515 55 129 0.0 0.0 0.00 0.00 0.00 94 1003.4
20210926111016 56 129 0.0 0.0 0.00 0.00 0.00 94 1003.4
20210926110515 56 129 0.0 0.0 0.00 0.00 0.00 95 1003.3
20210926110012 56 129 0.0 0.0 0.00 0.00 0.00 95 1003.3
20210926105511 56 129 0.0 0.0 0.00 0.00 0.00 95 1003.2
20210926105009 56 129 0.0 0.0 0.00 0.00 0.00 95 1003.1
20210926104507 56 129 0.0 0.0 0.00 0.00 0.00 95 1003.0
20210926104007 56 130 0.0 0.0 0.00 0.00 0.00 94 1003.0
20210926103508 56 130 0.0 0.0 0.00 0.00 0.00 94 1003.0
20210926103006 56 129 0.0 0.0 0.00 0.00 0.00 94 1002.9
20210926102506 56 129 0.0 0.0 0.00 0.00 0.00 94 1002.9
20210926102003 56 129 0.0 0.0 0.00 0.00 0.00 94 1002.9
20210926101501 56 129 0.0 0.0 0.00 0.00 0.00 94 1002.8
20210926101001 56 129 0.0 0.0 0.00 0.00 0.00 94 1002.8
20210926100501 56 129 0.0 0.0 0.00 0.00 0.00 94 1002.7
20210926100004 56 129 0.0 0.0 0.00 0.00 0.00 94 1002.7
20210926095501 56 129 0.0 0.0 0.00 0.00 0.00 94 1002.7
20210926095003 56 129 0.0 0.0 0.00 0.00 0.00 94 1002.7
20210926094501 56 129 0.0 0.0 0.00 0.00 0.00 94 1002.6
20210926093959 56 129 0.0 0.0 0.00 0.00 0.00 94 1002.5
20210926093457 56 130 0.0 0.0 0.00 0.00 0.00 94 1002.5
20210926092957 57 129 0.0 0.0 0.00 0.00 0.00 94 1002.5
20210926092457 57 130 0.0 0.0 0.00 0.00 0.00 94 1002.4
20210926091958 57 129 0.0 0.0 0.00 0.00 0.00 94 1002.4
20210926091457 57 129 0.0 0.0 0.00 0.00 0.00 94 1002.4
20210926090957 57 129 0.0 0.0 0.00 0.00 0.00 94 1002.3
20210926090457 57 130 0.0 0.0 0.00 0.00 0.00 94 1002.3
20210926085957 57 129 0.0 0.0 0.00 0.00 0.00 94 1002.3
20210926085457 57 129 0.0 0.0 0.00 0.00 0.00 94 1002.3
20210926084956 57 129 0.0 0.0 0.00 0.00 0.00 93 1002.3
20210926084455 57 129 0.0 0.0 0.00 0.00 0.00 93 1002.2
20210926083959 57 130 0.0 0.0 0.00 0.00 0.00 93 1002.2
20210926083455 57 130 0.0 0.0 0.00 0.00 0.00 93 1002.2
20210926082955 57 129 0.0 0.0 0.00 0.00 0.00 93 1002.2
20210926082455 57 129 0.0 0.0 0.00 0.00 0.00 93 1002.1
20210926081954 57 129 0.0 0.0 0.00 0.00 0.00 93 1002.1
20210926081455 57 129 0.0 0.0 0.00 0.00 0.00 93 1002.0
20210926080955 58 129 0.0 0.0 0.00 0.00 0.00 93 1002.0
20210926080455 58 129 0.0 0.0 0.00 0.00 0.00 92 1002.0
20210926075956 58 129 0.0 0.0 0.00 0.00 0.00 92 1002.0
20210926075453 58 130 0.0 0.0 0.00 0.00 0.00 92 1002.0
20210926074953 58 129 0.0 0.0 0.00 0.00 0.00 92 1001.9
20210926074452 58 129 0.0 0.0 0.00 0.00 0.00 92 1001.9
20210926073953 58 130 0.0 0.0 0.00 0.00 0.00 92 1002.0
20210926073453 58 130 0.0 0.0 0.00 0.00 0.00 92 1001.9
20210926072953 58 129 0.0 0.0 0.00 0.00 0.00 92 1001.9
20210926072453 58 129 0.0 0.0 0.00 0.00 0.00 92 1001.9
20210926071954 58 129 0.0 0.0 0.00 0.00 0.00 92 1001.9
20210926071453 58 129 0.0 0.0 0.00 0.00 0.00 92 1001.9
20210926070952 58 129 0.0 0.0 0.00 0.00 0.00 92 1001.8
20210926070453 58 130 0.0 0.0 0.00 0.00 0.00 92 1001.9
20210926065953 59 130 0.0 0.0 0.00 0.00 0.00 92 1001.8
20210926065451 59 129 0.0 0.0 0.00 0.00 0.00 92 1001.8
20210926064951 59 130 0.0 0.0 0.00 0.00 0.00 92 1001.8
20210926064450 59 129 0.0 0.0 0.00 0.00 0.00 92 1001.8
20210926063953 59 129 0.0 0.0 0.00 0.00 0.00 91 1001.8
20210926063451 59 129 0.0 0.0 0.00 0.00 0.00 91 1001.9
20210926062951 59 129 0.0 0.0 0.00 0.00 0.00 91 1001.9
20210926062451 59 129 0.0 0.0 0.00 0.00 0.00 91 1001.9
20210926061950 59 129 0.0 0.0 0.00 0.00 0.00 91 1002.0
20210926061449 59 130 0.0 0.0 0.00 0.00 0.00 90 1001.9
20210926060949 59 129 0.0 0.0 0.00 0.00 0.00 90 1001.9
20210926060449 60 129 0.0 0.0 0.00 0.00 0.00 90 1002.0
20210926055951 60 129 0.0 0.0 0.00 0.00 0.00 90 1002.0
20210926055449 60 129 0.0 0.0 0.00 0.00 0.00 90 1002.1
20210926054947 60 129 0.0 0.0 0.00 0.00 0.00 90 1002.1
20210926054446 60 130 0.0 0.0 0.00 0.00 0.00 90 1002.1
20210926053947 60 130 0.0 0.0 0.00 0.00 0.00 90 1002.1
20210926053447 60 129 0.0 0.0 0.00 0.00 0.00 90 1002.2
20210926052947 60 129 0.0 0.0 0.00 0.00 0.00 89 1002.1
20210926052443 60 129 0.0 0.0 0.00 0.00 0.00 89 1002.0
20210926051945 60 129 0.0 0.0 0.00 0.00 0.00 89 1002.1
20210926051441 61 129 0.0 0.0 0.00 0.00 0.00 89 1002.2